Regional Weather Roundup
Issued by NWS

Home | Current Version | Previous Version | Graphics & Text | Print | Product List | Glossary On
Versions: 1 2 3 4 5 6 7 8 9 10 11 12 13 14 15 16 17 18 19 20 21 22 23 24 25 26 27 28 29 30 31 32 33 34 35 36 37 38 39 40 41 42 43 44 45 46 47 48 49 50
000
ASUS45 KBOU 291607
RWRCO

WEATHER ROUNDUP FOR COLORADO
NATIONAL WEATHER SERVICE DENVER/BOULDER CO
1000 AM MDT FRI APR 29 2016

NOTE: "FAIR" INDICATES FEW OR NO CLOUDS BELOW 12000 FEET WITH NO
SIGNIFICANT WEATHER AND/OR OBSTRUCTIONS TO VISIBILITY.

COZ001>005-013-030-031-291700-
...NORTHWEST COLORADO...

CITY           SKY/WX    TMP DP  RH WIND       PRES   REMARKS
CRAIG          CLOUDY    41  35  79 VRB3      29.86F
HAYDEN         FAIR      37  30  75 NW5       29.85F
MEEKER         CLOUDY    41  35  79 W7        29.86R
MOUNT WERNER   NOT AVBL
STEAMBOAT SPGS FAIR      38  33  81 NW3       29.85F
WALDEN         CLOUDY    32  27  80 NW3       29.88F
$$

COZ006>008-011-291700-
...WEST CENTRAL VALLEYS...

CITY           SKY/WX    TMP DP  RH WIND       PRES   REMARKS
GRAND JUNCTION FAIR      46  40  79 NW7       29.85F
MONTROSE       FAIR      45  35  68 N7        29.86F
EAGLE          PTSUNNY   41  37  87 CALM      29.86F
RIFLE          PTSUNNY   48  37  65 W9        29.83F
DELTA          NOT AVBL
NUCLA          NOT AVBL
$$

COZ017>023-064>068-291700-
...SOUTHWEST COLORADO...

CITY           SKY/WX    TMP DP  RH WIND       PRES   REMARKS
DURANGO        CLOUDY    39  34  82 CALM      29.86S
CORTEZ         CLOUDY    44  33  65 W6        29.88R
PAGOSA SPRINGS FLURRIES  36  34  91 SW6       29.86S
TELLURIDE      FAIR      35  24  64 W10       29.88F WCI  27
WOLF CREEK PAS NOT AVBL
$$

COZ009-010-012-014-032>034-037-058>063-291700-
...CENTRAL COLORADO...

CITY           SKY/WX    TMP DP  RH WIND       PRES   REMARKS
ASPEN          PTSUNNY   37  33  85 CALM      29.83F
BUENA VISTA    LGT SNOW  31  29  92 CALM      29.91S VSB 1
COPPER MTN     NOT AVBL
BERTHOUD PASS  SNOW      16   5  62 E13       29.90F VSB<1/4 WCI   2
COTTONWOOD PAS SNOW      30  28  93 E6        29.91S VSB<1/4 WCI  24
GUNNISON       CLOUDY    34  30  86 CALM      29.88S
KREMMLING      FLURRIES  37  30  75 E3        29.88R
LEADVILLE      LGT SNOW  24  24 100 S9        29.87F FOG     WCI  14
MONARCH PASS   CLOUDY    19  16  86 NE26      29.96F WCI   1
SALIDA         CLOUDY    32  31  96 SE5       29.99S WCI  27
SUNLIGHT       CLOUDY    30  28  93 CALM      29.93S
WILKERSON PASS SNOW     N/A N/A N/A E9G16     29.93F VSB 1/4
$$

COZ069>075-291700-
...SAN LUIS VALLEY/SANGRE DE CRISTO MOUNTAINS...

CITY           SKY/WX    TMP DP  RH WIND       PRES   REMARKS
ALAMOSA        LGT SNOW  32  30  92 E13       29.85R VSB 1   WCI  22
LA VETA PASS   SNOW      25  23  93 MISG      29.89F VSB 1/2
SAGUACHE       LGT SNOW  32  32 100 SE3       29.86S VSB 1
$$

COZ035-036-038>040-291700-
...NORTHERN COLORADO FRONT RANGE...

CITY           SKY/WX    TMP DP  RH WIND       PRES   REMARKS
DENVER INTL AP SNOW      33  31  92 CALM      29.95F VSB 1/4
DMNS CITY PARK   N/A     33  33  99 N7        29.94F WCI  27
AURORA         SNOW      32  32 100 NE5       29.95F VSB 1/2 WCI  28
FRONT RANGE AP SNOW      32  32 100 E3        29.96F VSB 1/2
ERIE MUNI ARPT LGT SNOW  35  35 100 CALM      29.97F
BOULDER MUN AP MIX PCPN  34  34 100 CALM      29.96F
CENTENNIAL     LGT SNOW  33  32  96 NE3       29.93F VSB 3/4
BROOMFIELD     LGT SNOW  34  34 100 CALM      29.96F VSB 1
FORT COLLINS   CLOUDY    36  34  93 SE7       29.98F
LONGMONT       LGT SNOW  38  36  92 CALM      29.99S
$$

COZ041-046-047-076>085-087-088-291700-
...PIKES PEAK/PALMER DIVIDE AND SOUTHERN FOOTHILLS...

CITY           SKY/WX    TMP DP  RH WIND       PRES   REMARKS
COLO. SPRINGS  HVY SNOW  33  31  92 N6        29.93F VSB 1/4 WCI  28
A. F. ACADEMY  LGT SNOW  32  32 100 W2        29.91F FOG
SCHRIEVER AFB  NOT AVBL
ELLICOTT       NOT AVBL
FALCON         LGT SNOW  34  31  89 N8        29.92F WCI  27
FORT CARSON    LGT SNOW  32  32 100 N6        29.91F VSB 3/4 WCI  26
LIMON          LGT SNOW  32  31  96 N7        29.93F VSB 3/4 WCI  26
MONUMENT HILL  LGT SNOW  30  28  93 CALM      29.93F VSB 3/4
TRINIDAD       SNOW      32  30  92 NW9       29.92R VSB 1/2 WCI  24
$$

COZ042>045-048>051-090-091-291700-
...NORTHEAST COLORADO...

CITY           SKY/WX    TMP DP  RH WIND       PRES   REMARKS
GREELEY ARPT   CLOUDY    36  34  93 SE6       30.00R
AKRON          RAIN      35  34  96 E10       29.97R FOG     WCI  27
BURLINGTON     LGT RAIN  39  36  89 NE20      29.93F
WRAY           NOT AVBL
STERLING       CLOUDY    37  37 100 E5        29.99R
HOLYOKE        NOT AVBL
FORT MORGAN    LGT SNOW  36  35  94 E5        29.98F
$$

COZ086-089-092>099-291700-
...SOUTHEAST COLORADO...

CITY           SKY/WX    TMP DP  RH WIND       PRES   REMARKS
PUEBLO         LGT SNOW  35  32  88 NW6       29.92F FOG     WCI  30
LA JUNTA       LGT SNOW  34  33  96 N9        29.91F FOG     WCI  27
LAMAR          LGT RAIN  42  40  92 NE13G20   29.87S
SPRINGFIELD      N/A     39  39 100 NE16      29.85S
$$



USA.gov is the U.S. government's official web portal to all federal, state and local government web resources and services.